Wallops Island, VA

3:37 PM EST on December 05, 2019 (GMT -0500)
Wallops Flight Facility

Weather History for KWAL - October, 2019

Change the Weather History Date:

Wednesday, October 16, 2019

  Actual Average Record
Temperature  
Mean Temperature 61 °F 59 °F  
Max Temperature 69 °F 68 °F 85 °F (2008)
Min Temperature 53 °F 50 °F 38 °F (2006)
Degree Days  
Heating Degree Days 4    
Month to date heating degree days 26  
Since 1 July heating degree days 35  
Cooling Degree Days 0    
Month to date cooling degree days 53  
Year to date cooling degree days 1800  
Growing Degree Days 12 (Base 50)    
Moisture  
Dew Point 61 °F    
Average Humidity 81    
Maximum Humidity 100    
Minimum Humidity 61    
Precipitation  
Precipitation 1.57 in 0.10 in 1.57 in (2019)
Month to date precipitation 2.65 1.63  
Year to date precipitation 36.98 33.00  
Sea Level Pressure  
Sea Level Pressure 29.61 in    
Wind  
Wind Speed 14 mph (South)    
Max Wind Speed 31 mph    
Max Gust Speed 42 mph    
Visibility 7 miles    
Events Rain    
T = Trace of Precipitation, MM = Missing Value Source: NWS Daily Summary

Daily Weather History Graph

Daily Weather History Graph

Search for Another Location

Airport or City:

Astronomy

Oct. 16, 2019 Rise Set
Actual Time 7:11 AM EDT 6:23 PM EDT
Civil Twilight 6:44 AM EDT 6:49 PM EDT
Nautical Twilight 6:14 AM EDT 7:20 PM EDT
Astronomical Twilight 5:43 AM EDT 7:50 PM EDT
Moon 8:17 PM EDT (10/16) 9:37 AM EDT (10/16)
Length of Visible Light 12h 05m
Length of Day
11h 12m
Waning Gibbous, 93% of the Moon is Illuminated
Oct 16
Waning Gibbous
Oct 21
Last Quarter
Oct 27
New
Nov 4
First Quarter
Nov 12
Full

Hourly Weather History & Observations

Time (EDT) Temp. Dew Point Humidity Pressure Visibility Wind Dir Wind Speed Gust Speed Precip Events Conditions
12:54 AM 60.1 °F 59.0 °F 96% 30.03 in 10.0 mi South 5.8 mph - N/A   Clear
1:54 AM 62.1 °F 59.0 °F 90% 30.01 in 10.0 mi SSE 9.2 mph - N/A   Clear
2:54 AM 62.1 °F 60.1 °F 93% 29.99 in 10.0 mi SSE 6.9 mph - N/A   Clear
3:54 AM 63.0 °F 61.0 °F 93% 29.96 in 10.0 mi SSE 4.6 mph - N/A   Clear
4:54 AM 63.0 °F 61.0 °F 93% 29.94 in 10.0 mi SE 6.9 mph - N/A   Clear
5:54 AM 63.0 °F 60.1 °F 90% 29.92 in 10.0 mi SE 6.9 mph - N/A   Clear
6:54 AM 64.0 °F 61.0 °F 90% 29.89 in 10.0 mi SE 9.2 mph - N/A   Clear
7:54 AM 64.9 °F 61.0 °F 87% 29.88 in 10.0 mi SE 10.4 mph - N/A   Overcast
8:54 AM 66.9 °F 63.0 °F 87% 29.86 in 10.0 mi SE 11.5 mph - N/A   Mostly Cloudy
9:54 AM 68.0 °F 64.0 °F 87% 29.81 in 10.0 mi SE 11.5 mph - N/A   Scattered Clouds
10:54 AM 69.1 °F 63.0 °F 81% 29.76 in 10.0 mi SE 17.3 mph 23.0 mph N/A   Overcast
11:54 AM 68.0 °F 63.0 °F 84% 29.71 in 10.0 mi SE 17.3 mph 25.3 mph 0.00 in Rain Light Rain
12:54 PM 66.9 °F 64.9 °F 93% 29.64 in 2.5 mi SSE 25.3 mph 40.3 mph 0.05 in Rain Heavy Rain
12:58 PM 66.9 °F 64.9 °F 93% 29.64 in 1.8 mi SSE 26.5 mph 40.3 mph 0.02 in Rain Heavy Rain
1:12 PM 66.0 °F 64.9 °F 96% 29.66 in 2.5 mi South 19.6 mph 41.4 mph 0.08 in Rain Rain
1:21 PM 66.0 °F 64.9 °F 96% 29.64 in 2.5 mi South 18.4 mph - 0.13 in Rain Heavy Rain
1:30 PM 66.0 °F 64.9 °F 96% 29.62 in 3.0 mi SSE 18.4 mph 24.2 mph 0.17 in Rain Rain
1:46 PM 64.9 °F 64.0 °F 97% 29.59 in 4.0 mi SSE 21.9 mph 29.9 mph 0.22 in Rain Rain
1:54 PM 64.9 °F 64.9 °F 100% 29.58 in 4.0 mi SSE 19.6 mph 29.9 mph 0.24 in Rain Rain
2:13 PM 64.0 °F 64.0 °F 100% 29.58 in 4.0 mi SSE 20.7 mph 33.4 mph 0.03 in Rain Rain
2:34 PM 64.0 °F 63.0 °F 96% 29.54 in 2.5 mi SSE 17.3 mph 32.2 mph 0.10 in Rain Heavy Rain
2:44 PM 64.9 °F 64.0 °F 97% 29.53 in 4.0 mi SSE 20.7 mph 33.4 mph 0.13 in Rain Rain
2:50 PM 64.4 °F 64.4 °F 100% 29.52 in 5.0 mi SSE 16.1 mph 28.8 mph 0.13 in Rain Rain
2:51 PM 64.9 °F 64.0 °F 97% 29.52 in 4.0 mi SSE 16.1 mph 28.8 mph 0.13 in Rain Rain
3:02 PM 64.9 °F 64.9 °F 100% 29.51 in 3.0 mi SSE 15.0 mph 24.2 mph 0.04 in Rain Rain
3:15 PM 66.0 °F 64.9 °F 96% 29.48 in 2.0 mi SSE 17.3 mph 29.9 mph 0.08 in Rain Heavy Rain
3:22 PM 66.0 °F 64.9 °F 96% 29.47 in 1.8 mi SSE 23.0 mph 31.1 mph 0.12 in Rain Heavy Rain
3:31 PM 66.0 °F 66.0 °F 100% 29.46 in 2.0 mi SSE 18.4 mph 31.1 mph 0.17 in Rain Heavy Rain
3:40 PM 66.0 °F 66.0 °F 100% 29.46 in 1.0 mi SSE 16.1 mph 29.9 mph 0.27 in Rain Heavy Rain
3:54 PM 66.0 °F 66.0 °F 100% 29.45 in 0.8 mi South 15.0 mph - 0.59 in Rain Heavy Rain
4:05 PM 66.0 °F 66.0 °F 100% 29.45 in 1.0 mi South 16.1 mph 24.2 mph 0.25 in Rain Heavy Rain
4:19 PM 66.9 °F 66.9 °F 100% 29.44 in 1.2 mi SSW 17.3 mph - 0.46 in Rain Heavy Rain
4:24 PM 66.9 °F 66.9 °F 100% 29.44 in 2.5 mi SSW 15.0 mph 24.2 mph 0.50 in Rain Heavy Rain
4:32 PM 66.9 °F 66.9 °F 100% 29.43 in 5.0 mi SW 17.3 mph 21.9 mph 0.53 in Rain Rain
4:54 PM 66.0 °F 64.9 °F 96% 29.44 in 10.0 mi WSW 12.7 mph 25.3 mph 0.55 in Rain Light Rain
5:15 PM 64.0 °F 63.0 °F 96% 29.44 in 10.0 mi West 12.7 mph 24.2 mph 0.01 in Rain Light Rain
5:32 PM 64.0 °F 63.0 °F 96% 29.42 in 10.0 mi West 10.4 mph - 0.01 in Rain Light Rain
5:54 PM 63.0 °F 62.1 °F 97% 29.42 in 10.0 mi West 15.0 mph 28.8 mph 0.01 in   Scattered Clouds
6:09 PM 62.1 °F 60.1 °F 93% 29.44 in 10.0 mi West 16.1 mph 25.3 mph N/A   Mostly Cloudy
6:43 PM 60.1 °F 57.9 °F 93% 29.44 in 10.0 mi WNW 15.0 mph 23.0 mph N/A   Overcast
6:54 PM 60.1 °F 57.9 °F 93% 29.44 in 10.0 mi WNW 12.7 mph - N/A   Mostly Cloudy
7:54 PM 57.9 °F 52.0 °F 81% 29.47 in 10.0 mi WNW 20.7 mph 36.8 mph N/A   Partly Cloudy
8:54 PM 55.9 °F 45.0 °F 67% 29.49 in 10.0 mi WNW 21.9 mph 35.7 mph N/A   Partly Cloudy
9:54 PM 55.0 °F 43.0 °F 64% 29.51 in 10.0 mi WNW 17.3 mph 29.9 mph N/A   Clear
10:54 PM 55.0 °F 42.1 °F 62% 29.53 in 10.0 mi WNW 23.0 mph 41.4 mph N/A   Scattered Clouds
11:54 PM 54.0 °F 42.1 °F 64% 29.54 in 10.0 mi WNW 17.3 mph 28.8 mph N/A   Clear